Temp
-2 -2 -2 -2 -2 -2 -3 -3 -3 -3 -3 -3 -3 -3 -3 -3 -3 -4 -5 -5 -6 -6 -7 -6 -6 -6 -6 -6 -6 -6 -5 -7 -7 -6 -4 -5 -6 -5 -6 -5 -5 -4 -4 -5 -5
-2 -2 -2 -2 -3 -3 -3 -3 -3 -4 -4 -4 -3 -3 -3 -3 -3 -4 -5 -6 -6 -7 -6 -6 -6 -6 -6 -8 -7 -6 -7 -7 -7 -5 -5 -6 -5 -4 -4 -4 -4 -4 -4 -5 -6
-2 -2 -2 -3 -3 -3 -4 -4 -4 -4 -4 -4 -4 -4 -4 -3 -3 -4 -4 -5 -6 -7 -6 -6 -6 -6 -6 -5 -6 -6 -7 -7 -6 -5 -5 -5 -4 -4 -5 -5 -4 -5 -4 -5 -6
-2 -2 -3 -3 -3 -4 -4 -4 -4 -4 -5 -5 -4 -4 -4 -4 -3 -4 -4 -5 -6 -7 -7 -5 -6 -6 -5 -5 -7 -7 -6 -7 -6 -6 -6 -6 -6 -6 -6 -5 -5 -5 -5 -4 -5
-3 -3 -3 -4 -4 -4 -5 -5 -5 -5 -5 -5 -5 -5 -4 -4 -4 -4 -4 -5 -6 -6 -8 -7 -6 -6 -6 -6 -6 -7 -6 -6 -6 -5 -6 -6 -6 -6 -6 -6 -5 -5 -5 -5 -4
-3 -3 -4 -4 -4 -4 -4 -4 -5 -5 -5 -5 -5 -5 -5 -4 -4 -4 -4 -5 -5 -6 -7 -7 -6 -6 -6 -6 -6 -7 -6 -6 -5 -7 -6 -6 -5 -5 -6 -6 -6 -5 -5 -6 -6
-3 -4 -4 -4 -4 -4 -4 -5 -5 -5 -5 -5 -6 -5 -5 -4 -5 -5 -5 -5 -5 -5 -6 -6 -6 -6 -6 -7 -6 -7 -6 -6 -6 -6 -7 -6 -5 -4 -5 -5 -6 -6 -5 -5 -5
-4 -4 -4 -4 -4 -4 -5 -5 -5 -5 -5 -5 -6 -6 -5 -5 -5 -5 -5 -5 -5 -5 -6 -6 -7 -6 -7 -6 -6 -6 -6 -6 -6 -6 -6 -5 -5 -5 -4 -5 -5 -5 -5 -5 -5
-4 -4 -4 -4 -4 -4 -5 -5 -5 -6 -6 -6 -6 -6 -6 -6 -5 -5 -5 -5 -5 -5 -6 -6 -6 -7 -7 -6 -6 -7 -7 -7 -6 -6 -5 -5 -5 -5 -5 -5 -6 -5 -5 -5 -5
-4 -4 -4 -4 -4 -4 -4 -5 -5 -6 -6 -6 -6 -6 -6 -5 -5 -5 -5 -5 -5 -5 -5 -6 -6 -7 -8 -8 -7 -7 -7 -7 -7 -6 -5 -5 -6 -6 -5 -5 -6 -6 -6 -5 -6
-4 -4 -3 -3 -4 -4 -4 -5 -5 -5 -6 -6 -6 -6 -6 -6 -6 -5 -5 -5 -5 -5 -5 -5 -6 -6 -7 -8 -8 -8 -7 -7 -7 -7 -7 -6 -7 -6 -6 -7 -6 -6 -6 -6 -6
-4 -4 -4 -4 -4 -4 -4 -5 -5 -5 -5 -5 -6 -6 -6 -6 -6 -6 -6 -6 -6 -6 -5 -5 -6 -7 -7 -7 -7 -7 -7 -7 -6 -6 -6 -7 -6 -4 -6 -7 -5 -5 -6 -6 -6
-4 -4 -4 -4 -4 -4 -3 -5 -5 -6 -5 -5 -5 -6 -5 -6 -6 -6 -6 -6 -6 -6 -6 -6 -7 -8 -7 -7 -7 -7 -7 -6 -6 -6 -6 -6 -7 -6 -6 -5 -5 -5 -5 -6 -6
-4 -4 -4 -4 -4 -5 -4 -4 -4 -5 -5 -6 -6 -5 -6 -5 -5 -6 -6 -6 -6 -6 -7 -7 -7 -7 -7 -6 -7 -7 -7 -6 -5 -5 -5 -6 -7 -7 -6 -6 -5 -5 -5 -6 -6
-5 -4 -4 -4 -5 -5 -5 -4 -6 -6 -6 -6 -6 -6 -6 -5 -7 -7 -6 -6 -6 -6 -7 -6 -6 -7 -6 -7 -5 -5 -6 -6 -5 -4 -5 -5 -6 -5 -6 -6 -6 -6 -5 -5 -5
-5 -5 -5 -5 -5 -5 -5 -7 -7 -7 -7 -7 -7 -6 -6 -6 -6 -7 -6 -6 -6 -7 -7 -7 -7 -7 -7 -6 -7 -6 -6 -6 -6 -5 -6 -5 -5 -5 -6 -6 -5 -5 -5 -6 -5
-5 -5 -5 -5 -5 -6 -6 -7 -6 -7 -7 -8 -7 -7 -7 -7 -7 -7 -7 -7 -7 -6 -7 -7 -7 -7 -7 -7 -6 -7 -7 -6 -6 -6 -6 -6 -5 -6 -6 -6 -6 -6 -6 -6 -6
-5 -5 -5 -5 -5 -6 -6 -6 -7 -7 -7 -7 -7 -7 -7 -7 -7 -7 -7 -7 -7 -7 -7 -7 -7 -7 -7 -7 -6 -7 -7 -7 -6 -6 -6 -6 -5 -6 -6 -6 -6 -6 -6 -6 -6
-5 -6 -6 -6 -6 -6 -6 -6 -7 -8 -7 -7 -7 -7 -7 -7 -7 -7 -7 -7 -7 -7 -7 -7 -7 -7 -6 -7 -7 -7 -6 -7 -6 -6 -6 -6 -6 -6 -6 -6 -6 -7 -7 -6 -6
-6 -6 -6 -6 -6 -6 -7 -6 -7 -7 -6 -6 -7 -7 -8 -8 -7 -7 -7 -8 -8 -7 -7 -7 -7 -7 -7 -7 -7 -7 -7 -7 -6 -6 -6 -6 -7 -7 -7 -7 -7 -7 -6 -6 -7
-6 -6 -6 -6 -6 -7 -7 -6 -8 -7 -6 -6 -6 -7 -7 -8 -8 -7 -8 -8 -8 -6 -7 -7 -7 -7 -7 -8 -8 -7 -7 -7 -6 -7 -6 -6 -7 -7 -7 -7 -7 -7 -7 -7 -7
-6 -6 -6 -6 -6 -7 -7 -8 -8 -8 -6 -6 -6 -7 -7 -7 -7 -7 -8 -8 -8 -7 -7 -7 -6 -6 -7 -8 -7 -7 -7 -7 -7 -7 -7 -7 -7 -7 -8 -7 -6 -6 -6 -7 -7
-6 -6 -6 -6 -6 -7 -6 -9 -8 -7 -7 -6 -7 -6 -6 -7 -6 -7 -8 -6 -6 -6 -6 -6 -6 -6 -8 -8 -8 -8 -8 -8 -7 -7 -7 -7 -7 -7 -8 -7 -5 -5 -6 -7 -8
-6 -6 -6 -6 -7 -7 -8 -7 -7 -7 -7 -7 -7 -7 -6 -7 -7 -7 -8 -7 -6 -6 -6 -6 -7 -7 -7 -8 -8 -8 -8 -8 -7 -7 -7 -7 -8 -8 -8 -8 -7 -6 -5 -6 -8
-6 -6 -6 -6 -6 -6 -7 -7 -7 -7 -7 -6 -6 -7 -7 -7 -7 -7 -9 -9 -7 -6 -6 -6 -6 -6 -6 -7 -7 -7 -7 -7 -7 -7 -6 -7 -8 -8 -8 -8 -8 -9 -6 -6 -6
-7 -7 -7 -7 -7 -6 -7 -7 -7 -7 -7 -8 -6 -6 -6 -7 -6 -7 -7 -7 -7 -6 -6 -6 -6 -6 -6 -6 -6 -6 -6 -6 -7 -7 -7 -7 -6 -7 -7 -8 -9 -8 -7 -6 -6
-7 -7 -7 -7 -7 -7 -7 -7 -7 -7 -6 -6 -7 -7 -6 -6 -6 -7 -7 -7 -7 -7 -7 -7 -7 -6 -6 -6 -6 -6 -7 -7 -7 -7 -7 -7 -7 -6 -8 -8 -7 -6 -6 -6 -6
Height
5925 5923 5921 5918 5916 5915 5913 5912 5911 5911 5911 5910 5911 5912 5912 5914 5914 5914 5914 5914 5914 5913 5909 5907 5903 5901 5899 5905 5902 5901 5879 5898 5900 5902 5896 5893 5893 5892 5891 5890 5886 5882 5883 5883 5883
5922 5920 5918 5915 5912 5910 5909 5908 5907 5907 5907 5908 5908 5909 5910 5912 5913 5914 5914 5913 5914 5912 5908 5911 5913 5907 5906 5906 5908 5901 5898 5903 5908 5902 5900 5899 5899 5897 5893 5891 5888 5886 5884 5882 5882
5919 5916 5914 5911 5908 5906 5904 5903 5903 5903 5903 5904 5905 5906 5908 5910 5912 5913 5912 5913 5914 5913 5909 5912 5909 5908 5913 5911 5911 5907 5907 5912 5910 5908 5906 5904 5899 5895 5895 5893 5893 5890 5888 5884 5882
5916 5912 5909 5906 5903 5901 5899 5898 5898 5898 5898 5900 5901 5902 5905 5907 5911 5912 5912 5912 5913 5915 5908 5915 5914 5915 5911 5910 5911 5912 5903 5917 5913 5911 5907 5903 5900 5899 5898 5897 5894 5893 5891 5889 5885
5912 5909 5906 5903 5900 5898 5896 5895 5894 5893 5894 5895 5898 5899 5901 5904 5908 5909 5910 5911 5912 5914 5916 5915 5917 5914 5912 5905 5906 5909 5902 5901 5916 5914 5910 5908 5908 5907 5903 5900 5898 5895 5894 5893 5892
5910 5907 5904 5901 5899 5896 5893 5891 5890 5890 5890 5891 5894 5896 5900 5903 5906 5907 5909 5910 5910 5911 5913 5914 5916 5918 5919 5913 5907 5907 5899 5897 5905 5911 5912 5911 5910 5911 5906 5903 5901 5900 5899 5896 5896
5909 5906 5903 5901 5897 5894 5892 5889 5886 5886 5887 5888 5891 5894 5898 5900 5903 5905 5906 5908 5909 5910 5911 5915 5917 5919 5918 5913 5913 5914 5913 5906 5906 5905 5914 5913 5913 5912 5911 5906 5904 5903 5904 5904 5902
5908 5905 5903 5900 5897 5894 5891 5888 5885 5884 5885 5886 5889 5893 5896 5900 5901 5902 5904 5906 5908 5909 5911 5913 5917 5918 5918 5917 5918 5916 5914 5912 5891 5907 5913 5917 5917 5915 5912 5910 5907 5907 5906 5906 5906
5907 5906 5904 5901 5898 5895 5892 5889 5886 5885 5885 5886 5889 5892 5896 5897 5900 5901 5903 5905 5907 5908 5909 5911 5916 5919 5919 5919 5921 5918 5916 5912 5910 5906 5910 5918 5920 5916 5913 5912 5909 5911 5911 5910 5909
5908 5906 5904 5902 5899 5897 5894 5891 5889 5888 5887 5888 5889 5893 5895 5897 5898 5900 5902 5904 5906 5907 5908 5910 5914 5918 5920 5915 5918 5919 5917 5915 5913 5912 5907 5916 5914 5913 5916 5913 5909 5914 5915 5913 5913
5908 5906 5904 5903 5901 5898 5896 5894 5894 5892 5889 5890 5891 5892 5894 5896 5898 5900 5901 5902 5904 5906 5908 5909 5911 5915 5916 5920 5919 5918 5915 5915 5914 5917 5916 5916 5909 5906 5902 5902 5908 5914 5915 5916 5915
5908 5906 5905 5904 5902 5900 5898 5896 5896 5894 5893 5892 5892 5893 5894 5896 5898 5899 5901 5903 5903 5905 5907 5909 5910 5913 5918 5918 5917 5917 5919 5920 5919 5922 5922 5917 5909 5902 5905 5910 5911 5916 5915 5916 5915
5909 5907 5905 5904 5903 5902 5899 5899 5899 5895 5897 5894 5896 5895 5895 5896 5898 5899 5901 5902 5903 5904 5905 5907 5909 5911 5914 5912 5914 5917 5917 5917 5918 5919 5920 5915 5911 5912 5915 5915 5913 5914 5914 5916 5918
5909 5908 5906 5905 5905 5903 5902 5900 5899 5897 5897 5898 5899 5899 5896 5897 5898 5898 5900 5903 5902 5903 5905 5907 5910 5910 5910 5913 5911 5911 5912 5912 5916 5917 5916 5917 5913 5913 5914 5916 5915 5913 5912 5918 5919
5910 5908 5907 5906 5905 5904 5904 5900 5900 5901 5898 5900 5899 5900 5900 5900 5899 5900 5901 5902 5903 5903 5907 5910 5909 5910 5910 5909 5908 5911 5913 5914 5916 5915 5914 5916 5912 5913 5912 5913 5916 5916 5916 5915 5917
5910 5909 5908 5908 5907 5907 5904 5905 5904 5905 5902 5905 5905 5904 5903 5902 5902 5904 5905 5905 5904 5906 5907 5909 5909 5909 5909 5909 5910 5911 5910 5912 5913 5913 5914 5914 5913 5913 5912 5912 5912 5910 5912 5914 5915
5911 5910 5910 5909 5909 5908 5908 5907 5907 5906 5911 5909 5906 5905 5904 5904 5907 5908 5907 5908 5907 5907 5905 5906 5908 5907 5910 5910 5908 5908 5908 5911 5911 5913 5915 5912 5913 5912 5909 5912 5909 5912 5915 5914 5913
5911 5911 5911 5910 5910 5910 5909 5909 5906 5913 5913 5913 5912 5911 5910 5912 5909 5908 5905 5906 5909 5907 5909 5907 5907 5910 5910 5908 5906 5908 5910 5908 5910 5912 5914 5913 5912 5907 5909 5910 5909 5912 5915 5916 5913
5911 5911 5911 5911 5910 5910 5911 5908 5906 5910 5911 5910 5913 5914 5914 5914 5914 5912 5911 5912 5909 5909 5912 5908 5911 5911 5911 5910 5908 5908 5907 5909 5910 5913 5912 5911 5911 5909 5907 5907 5906 5910 5914 5915 5914
5910 5910 5911 5911 5910 5910 5910 5909 5908 5909 5910 5911 5910 5913 5914 5911 5913 5912 5913 5911 5909 5908 5909 5908 5908 5910 5910 5909 5906 5907 5907 5909 5909 5911 5913 5911 5909 5909 5907 5905 5905 5906 5910 5908 5904
5908 5909 5910 5910 5909 5909 5909 5907 5907 5907 5909 5909 5908 5909 5911 5910 5910 5913 5911 5908 5906 5905 5906 5906 5905 5906 5907 5907 5906 5908 5907 5907 5908 5910 5912 5911 5909 5908 5907 5905 5900 5903 5906 5902 5896
5906 5907 5907 5907 5908 5907 5907 5905 5908 5908 5907 5906 5907 5907 5906 5905 5907 5908 5905 5905 5904 5903 5903 5904 5904 5902 5905 5906 5907 5906 5905 5904 5904 5906 5907 5908 5909 5904 5899 5900 5899 5901 5902 5898 5895
5903 5903 5903 5904 5905 5905 5903 5905 5904 5905 5904 5903 5903 5903 5903 5904 5905 5906 5902 5900 5900 5900 5899 5900 5900 5903 5903 5903 5901 5902 5903 5901 5901 5901 5903 5904 5904 5900 5898 5897 5896 5896 5898 5894 5888
5900 5898 5901 5902 5901 5900 5900 5900 5901 5900 5901 5900 5901 5900 5900 5900 5900 5899 5901 5897 5896 5896 5896 5897 5897 5898 5900 5897 5896 5897 5897 5897 5897 5899 5899 5900 5898 5898 5891 5886 5890 5890 5892 5891 5882
5894 5895 5898 5898 5898 5899 5898 5898 5898 5897 5896 5895 5896 5896 5896 5895 5895 5895 5894 5894 5891 5893 5894 5894 5894 5894 5894 5894 5894 5895 5894 5894 5894 5895 5895 5898 5894 5892 5890 5885 5882 5883 5883 5884 5881
5889 5890 5892 5891 5891 5892 5893 5894 5893 5893 5893 5891 5890 5891 5891 5889 5889 5891 5890 5889 5889 5889 5889 5889 5889 5888 5889 5888 5887 5888 5889 5889 5889 5889 5889 5890 5892 5888 5886 5884 5881 5877 5876 5878 5879
5881 5881 5883 5886 5885 5885 5887 5884 5885 5885 5887 5885 5886 5885 5886 5885 5886 5887 5885 5885 5884 5884 5885 5884 5883 5883 5884 5883 5883 5884 5884 5883 5884 5884 5885 5884 5884 5883 5883 5877 5875 5874 5874 5873 5872
Wind_Speed
15 15 17 17 18 18 17 17 15 14 13 13 11 10 7 4 2 3 2 2 2 3 3 7 1 24 28 22 20 30 21 32 27 18 22 25 23 22 19 17 20 12 5 3 1
18 18 18 19 19 18 18 18 18 17 15 14 14 12 11 8 6 4 5 5 4 2 7 10 13 27 28 31 32 36 31 24 24 27 28 22 11 14 23 23 21 23 15 11 10
22 22 22 21 20 18 17 17 18 18 17 15 14 14 13 12 10 8 8 9 8 3 8 7 18 16 23 21 27 31 23 18 25 26 27 28 27 27 28 25 22 21 22 21 19
24 24 22 20 18 16 16 16 17 17 19 17 15 16 15 14 11 11 9 10 9 5 6 3 8 12 22 19 23 22 21 17 20 24 26 28 31 27 30 27 21 22 21 24 23
24 22 20 16 13 12 11 11 12 14 17 19 17 16 16 15 11 13 13 11 11 8 6 4 9 15 18 23 14 4 5 14 22 21 26 21 23 22 26 29 23 20 21 22 24
21 17 14 13 12 12 12 12 11 13 14 17 17 15 14 13 8 14 14 13 13 12 10 9 3 6 6 5 9 19 28 16 15 21 21 16 21 23 22 26 26 20 20 19 19
15 12 12 11 12 12 11 10 9 9 12 14 16 14 12 12 5 8 11 13 13 12 10 2 5 5 5 5 4 9 20 7 11 16 19 22 18 23 20 24 26 24 20 18 16
12 11 10 10 12 12 13 13 8 3 6 10 12 12 10 4 10 10 12 12 13 13 11 6 5 7 5 7 6 14 24 18 9 20 27 15 11 19 21 24 26 25 22 20 19
9 8 8 9 12 12 12 14 11 6 2 3 7 8 6 9 7 7 8 11 12 12 12 11 5 7 1 6 14 17 11 16 17 18 18 12 5 12 13 20 26 25 20 21 20
6 6 8 9 11 11 12 13 13 12 9 4 3 6 8 5 6 6 6 7 8 11 12 11 5 12 5 20 21 18 13 20 18 16 18 16 18 14 7 11 18 22 21 20 20
6 6 7 8 9 11 12 12 12 12 12 8 4 3 2 6 5 4 4 4 7 9 11 12 11 15 11 8 10 21 19 19 26 24 15 9 17 18 13 13 14 15 18 18 20
7 7 6 7 8 9 11 13 10 15 10 11 9 6 4 2 3 3 2 3 5 7 8 9 7 12 16 12 13 18 6 8 15 16 4 10 19 22 24 21 16 13 15 19 17
7 7 6 5 6 7 12 10 9 18 8 16 9 8 6 4 4 4 3 3 3 9 10 5 5 3 15 19 19 12 8 4 11 11 7 12 16 11 26 18 22 6 10 12 16
7 7 6 4 4 10 7 10 11 16 20 17 9 6 11 6 8 7 3 3 7 8 4 1 8 10 19 8 6 6 11 14 10 14 12 4 19 18 19 17 25 16 9 9 11
5 6 6 5 7 7 7 12 18 18 20 18 15 11 8 5 12 8 4 2 2 3 10 8 9 10 11 6 10 10 6 13 13 5 8 3 13 24 25 15 13 10 10 15 20
5 6 6 6 8 7 12 16 16 18 18 20 12 5 8 12 15 10 9 10 15 19 16 19 18 17 20 7 4 7 11 13 16 14 15 12 14 23 12 12 10 9 18 26 24
6 7 7 7 7 8 8 10 17 22 14 12 17 18 20 19 14 12 14 20 9 16 19 23 14 12 21 3 6 2 8 8 8 7 11 11 16 14 13 13 5 5 17 21 28
3 4 5 5 6 6 8 9 23 14 9 7 15 11 5 16 15 17 17 20 10 10 4 16 8 11 23 22 9 10 6 7 5 6 13 13 19 6 15 4 3 11 14 17 27
2 2 3 2 4 3 2 5 11 6 11 8 3 13 13 14 12 12 9 3 9 14 5 10 7 9 6 9 8 7 15 4 6 3 7 15 7 6 19 8 11 20 12 23 27
3 2 2 2 3 3 2 2 6 3 5 3 11 3 2 12 10 8 10 11 17 18 15 11 11 5 10 14 12 9 7 6 7 6 5 11 8 9 9 18 24 26 28 27 25
6 4 3 3 1 1 4 2 4 12 4 6 8 9 14 11 11 4 5 17 20 15 8 18 16 15 7 7 14 9 17 17 12 5 3 9 19 19 23 23 31 27 27 28 23
9 6 6 4 3 3 9 7 11 12 10 7 6 9 15 17 17 16 13 19 25 27 14 11 13 12 15 8 12 18 22 1 5 14 11 8 13 15 22 24 33 33 24 24 18
12 11 8 6 5 7 5 4 19 10 13 9 7 10 12 10 10 11 19 21 19 16 15 9 8 1 10 9 10 2 7 9 12 17 14 7 14 17 25 33 30 11 10 14 18
18 19 14 10 11 9 10 14 12 14 9 15 11 14 12 12 11 11 12 25 18 12 13 11 11 11 13 18 19 16 16 17 16 14 16 14 10 16 20 32 22 24 15 15 28
22 23 16 18 17 13 12 11 13 15 19 17 13 14 16 16 15 13 14 13 20 10 7 10 12 14 15 17 18 23 25 25 25 20 17 19 22 22 22 27 33 33 34 24 25
25 26 24 23 24 21 20 17 19 18 20 23 22 17 17 18 20 17 20 23 23 18 15 13 14 16 17 19 20 19 19 19 17 16 18 18 19 30 33 30 31 41 45 33 29
28 30 30 28 29 28 25 28 27 28 24 26 24 25 22 21 21 17 20 22 20 19 18 19 18 17 13 16 17 15 15 19 18 20 17 20 21 22 22 30 39 41 39 34 35
Wind_Direction
323 318 313 309 304 297 290 286 282 275 263 260 258 251 242 240 259 238 240 219 1 357 332 330 77 33 46 73 62 63 67 45 46 30 51 45 44 49 61 64 64 68 108 86 39
328 321 316 309 301 295 288 282 278 274 268 259 256 251 247 233 223 222 231 219 249 299 291 328 322 26 61 61 50 54 64 40 42 31 44 40 29 39 50 54 57 64 72 75 34
326 322 318 311 303 295 287 281 273 267 263 255 250 248 241 239 231 212 221 222 225 265 308 349 26 7 32 38 55 57 52 45 36 32 33 28 28 44 42 36 46 59 62 70 62
325 323 320 316 309 302 292 282 273 265 257 252 246 245 240 236 237 241 224 221 235 209 302 337 354 33 18 31 54 37 30 28 34 23 29 23 28 37 41 37 37 47 60 67 75
327 327 327 328 329 325 313 292 281 268 257 247 242 240 242 239 232 227 215 225 230 233 191 275 307 41 26 8 42 358 109 127 31 26 20 31 28 36 44 41 42 46 48 66 73
332 336 338 337 337 330 317 299 279 264 254 243 236 237 239 244 230 226 224 218 225 231 224 207 170 71 21 41 44 330 300 118 86 28 22 33 26 30 38 47 49 58 52 57 69
337 346 345 353 353 348 348 334 295 261 245 239 231 231 230 239 204 215 221 222 227 238 248 260 115 122 138 241 13 299 308 74 115 83 34 28 22 26 33 45 53 53 56 61 71
345 351 358 8 7 7 9 8 0 298 242 228 224 221 227 216 217 218 215 215 227 236 243 236 145 114 184 248 26 342 341 325 160 69 45 45 40 25 50 54 51 54 50 53 64
348 356 12 19 17 17 21 26 32 41 72 207 206 213 207 222 219 228 223 222 223 231 238 245 165 148 2 248 17 6 352 323 61 61 28 24 11 13 45 72 49 37 50 56 56
351 4 15 22 23 24 33 40 50 54 59 87 189 200 208 204 214 221 223 214 211 220 226 231 196 139 61 346 341 360 347 353 31 25 17 349 334 318 342 59 51 40 45 51 59
0 2 9 20 25 31 42 47 53 59 59 63 74 148 169 197 203 212 224 205 197 213 214 227 212 173 7 315 339 316 325 340 357 5 329 290 275 280 161 130 64 51 50 48 51
4 2 0 14 26 42 54 51 60 62 58 65 60 69 85 127 192 194 202 218 192 197 225 215 123 49 340 288 263 269 29 0 334 334 96 276 305 330 352 360 19 17 35 40 35
359 359 359 14 44 45 55 69 71 74 74 72 60 60 82 93 143 164 172 187 197 182 179 213 157 285 258 274 276 277 20 290 265 288 308 278 299 317 315 333 339 334 26 24 29
357 4 6 11 63 57 45 79 80 65 61 62 59 67 62 71 106 85 82 221 205 162 114 128 3 261 238 288 344 266 221 239 277 278 284 243 292 295 279 305 322 324 27 21 24
5 15 22 36 48 93 82 59 63 51 39 31 40 45 46 62 58 42 48 49 96 68 62 37 8 329 294 227 268 321 6 56 34 11 289 158 278 302 315 325 325 315 355 19 10
35 33 39 51 71 59 68 79 73 51 22 3 40 38 73 57 56 38 49 83 94 86 52 21 5 354 13 303 328 109 81 34 358 3 5 352 301 290 305 320 266 267 356 351 351
56 53 54 58 73 79 86 78 72 45 37 341 2 32 29 13 36 77 75 29 46 72 31 360 327 353 338 295 218 138 52 327 55 327 300 305 342 312 277 302 177 27 341 346 339
29 42 47 59 61 74 94 72 71 51 313 31 39 69 16 353 333 349 45 18 14 31 25 38 349 295 324 329 286 199 169 293 239 17 5 238 293 304 312 246 297 282 320 327 317
327 10 41 6 71 74 61 324 106 208 241 168 353 350 334 315 343 2 58 60 244 244 182 105 130 349 43 28 27 232 201 253 270 112 15 337 301 287 328 243 287 308 302 311 311
277 302 321 78 84 77 64 28 57 230 314 237 148 156 174 337 350 7 329 271 276 290 250 199 192 60 316 331 343 321 255 214 173 144 30 322 317 351 257 264 275 286 304 309 314
254 250 270 260 91 242 267 276 16 313 326 264 240 167 178 216 250 193 272 289 285 309 235 240 239 192 199 242 324 279 306 301 181 167 302 305 308 297 287 278 278 289 305 312 301
247 258 254 261 279 270 254 348 303 289 304 284 276 239 213 223 235 185 247 258 268 276 289 276 281 230 202 209 286 287 296 223 169 189 194 283 327 286 280 285 292 302 311 308 306
242 251 241 251 257 281 270 179 276 278 283 291 265 258 257 257 272 246 225 270 280 277 271 280 273 302 159 173 195 300 284 230 232 205 208 253 284 278 296 283 274 306 296 329 311
243 247 256 263 240 237 222 242 281 289 273 278 275 281 277 272 263 258 244 263 288 272 282 280 268 259 216 205 219 219 219 246 263 256 213 202 249 265 294 291 287 288 319 316 307
247 255 259 261 270 275 283 283 284 268 282 282 275 275 272 271 271 252 249 272 281 284 265 276 275 269 266 260 261 258 270 277 282 284 267 219 232 259 269 285 299 301 303 314 316
250 252 252 258 262 267 269 272 273 271 267 259 277 282 285 276 271 265 273 281 287 291 290 284 275 269 267 268 265 267 274 286 278 275 269 267 248 243 254 273 284 276 287 303 300
249 252 250 252 257 263 265 263 268 275 271 277 275 275 282 285 289 286 273 271 276 277 282 287 282 277 272 270 269 276 272 274 271 272 283 274 266 264 257 256 264 275 288 291 297